FW1511 Weather Reports


Display with metric or nautical units.
time (UTC)temp
F
wind
direction
speed
MPH
gust
MPH
rain 1hr
in
rain 24hr
in
rain mn
in
humidity
%
barometer
mb
20260831050021 59 114 0.0 0.0 0.00 0.00 0.00 83 1016.4
20260831044520 60 114 0.0 0.0 0.00 0.00 0.00 83 1016.4
20260831043020 60 114 0.0 0.0 0.00 0.00 0.00 81 1016.5
20260831041529 61 114 0.0 0.0 0.00 0.00 0.00 80 1016.6
20260831040037 62 114 0.0 0.0 0.00 0.00 0.00 78 1016.7
20260831034519 62 114 0.0 1.0 0.00 0.00 0.00 77 1016.7
20260831033018 64 112 0.0 0.0 0.00 0.00 0.00 75 1016.6
20260831031517 65 112 0.0 0.0 0.00 0.00 0.00 72 1016.5
20260831030017 67 112 0.0 1.0 0.00 0.00 0.00 70 1016.4
20260831024516 68 174 0.0 3.0 0.00 0.00 0.00 68 1016.5
20260831023024 70 233 0.0 2.0 0.00 0.00 0.00 63 1016.5
20260831021537 72 229 0.0 1.0 0.00 0.00 0.00 56 1016.6
20260831020014 72 243 0.0 4.0 0.00 0.00 0.00 55 1016.7
20260831014513 73 286 0.0 3.0 0.00 0.00 0.00 55 1016.6
20260831013011 73 221 1.0 3.0 0.00 0.00 0.00 54 1016.7
20260831011510 74 141 1.0 4.0 0.00 0.00 0.00 56 1016.8
20260831010024 73 212 0.0 9.0 0.00 0.00 0.00 56 1016.8
20260831004507 74 153 2.0 8.0 0.00 0.00 0.00 55 1016.9
20260831003006 74 115 2.0 12.0 0.00 0.00 0.00 56 1017.0
20260831001508 73 179 2.0 8.0 0.00 0.00 0.00 57 1017.2
20260831000005 72 245 1.0 8.0 0.00 0.00 0.00 60 1017.3
20260830234501 71 146 2.0 6.0 0.00 0.00 0.00 60 1017.4
20260830233100 71 141 1.0 5.0 0.00 0.00 0.00 59 1017.6
20260830231559 72 144 1.0 4.0 0.00 0.00 0.00 56 1017.5
20260830230057 74 167 3.0 9.0 0.00 0.00 0.00 55 1017.7
20260830224602 72 72 1.0 5.0 0.00 0.00 0.00 57 1017.8
20260830223053 72 214 1.0 7.0 0.00 0.00 0.00 56 1018.1
20260830221550 73 248 1.0 5.0 0.00 0.00 0.00 55 1018.3
20260830220100 72 175 1.0 3.0 0.00 0.00 0.00 56 1018.5
20260830214554 74 202 1.0 6.0 0.00 0.00 0.00 54 1018.7
20260830213043 73 205 2.0 8.0 0.00 0.00 0.00 55 1018.8
20260830211540 73 140 4.0 8.0 0.00 0.00 0.00 54 1018.8
20260830210039 72 89 2.0 8.0 0.00 0.00 0.00 58 1018.9
20260830204538 72 259 2.0 5.0 0.00 0.00 0.00 58 1019.0
20260830203036 72 312 4.0 9.0 0.00 0.00 0.00 57 1019.0
20260830201531 70 153 3.0 10.0 0.00 0.00 0.00 59 1019.2
20260830200029 69 257 1.0 6.0 0.00 0.00 0.00 61 1019.1
20260830194528 69 149 2.0 7.0 0.00 0.00 0.00 61 1019.3
20260830193025 67 160 1.0 4.0 0.00 0.00 0.00 64 1019.4
20260830191525 67 277 2.0 7.0 0.00 0.00 0.00 65 1019.6
20260830190029 68 262 2.0 6.0 0.00 0.00 0.00 63 1019.4
20260830184522 66 109 0.0 4.0 0.00 0.00 0.00 66 1019.3
20260830183022 66 89 2.0 7.0 0.00 0.00 0.00 68 1019.4
20260830181531 64 219 0.0 4.0 0.00 0.00 0.00 72 1019.5
20260830180023 64 318 1.0 4.0 0.00 0.00 0.00 74 1019.4
20260830174524 62 197 0.0 3.0 0.00 0.00 0.00 76 1019.5
20260830173016 63 229 3.0 7.0 0.00 0.00 0.00 79 1019.6
20260830171513 61 181 1.0 5.0 0.00 0.00 0.00 81 1019.6
20260830170007 60 124 2.0 6.0 0.00 0.00 0.00 84 1019.5
20260830164504 60 174 0.0 5.0 0.00 0.00 0.00 85 1019.7
20260830163001 59 103 1.0 5.0 0.00 0.00 0.00 87 1019.8
20260830161631 58 166 0.0 2.0 0.00 0.00 0.00 89 1019.8
20260830160056 57 155 0.0 2.0 0.00 0.00 0.00 90 1019.8
20260830154553 56 101 0.0 2.0 0.00 0.00 0.00 93 1019.9
20260830153049 54 111 0.0 3.0 0.00 0.00 0.00 95 1020.2
20260830151545 53 120 0.0 2.0 0.00 0.00 0.00 96 1019.9
20260830150043 52 139 0.0 0.0 0.00 0.00 0.00 97 1019.8
20260830144541 51 139 0.0 0.0 0.00 0.00 0.00 97 1019.8
20260830143040 50 141 0.0 0.0 0.00 0.00 0.00 96 1019.8
20260830141538 50 141 0.0 2.0 0.00 0.00 0.00 96 1019.5
20260830140037 50 137 0.0 2.0 0.00 0.00 0.00 96 1019.3
20260830134546 50 103 0.0 3.0 0.00 0.01 0.00 96 1019.3
20260830133039 50 141 2.0 4.0 0.00 0.01 0.00 96 1019.4
20260830131543 50 141 1.0 3.0 0.00 0.01 0.00 96 1019.3
20260830130035 51 118 1.0 3.0 0.00 0.01 0.00 96 1019.4
20260830124533 51 115 0.0 0.0 0.00 0.07 0.00 97 1019.5
20260830123033 51 116 0.0 0.0 0.00 0.07 0.00 97 1019.4
20260830121532 51 117 0.0 0.0 0.00 0.07 0.00 97 1019.4
20260830120032 50 117 0.0 0.0 0.00 0.07 0.00 97 1019.4
20260830114530 50 117 0.0 1.0 0.00 0.08 0.00 98 1019.3
20260830113030 49 117 0.0 2.0 0.00 0.08 0.00 98 1019.2
20260830111530 48 109 0.0 0.0 0.00 0.08 0.00 97 1019.1
20260830110028 48 109 0.0 0.0 0.00 0.08 0.00 96 1019.2
20260830104525 48 109 0.0 0.0 0.00 0.08 0.00 96 1019.2
20260830103024 48 109 0.0 0.0 0.00 0.08 0.00 96 1019.2
20260830101522 48 109 0.0 0.0 0.00 0.08 0.00 96 1019.0
20260830100021 49 109 0.0 0.0 0.00 0.08 0.00 95 1019.0
20260830094519 49 97 0.0 0.0 0.00 0.08 0.00 95 1018.9
20260830093016 49 97 0.0 0.0 0.00 0.08 0.00 95 1018.9
20260830091519 50 97 0.0 0.0 0.00 0.08 0.00 94 1019.1
20260830090017 51 97 0.0 0.0 0.00 0.08 0.00 94 1019.2
20260830084512 52 97 0.0 0.0 0.00 0.08 0.00 94 1019.3
20260830083009 51 111 0.0 0.0 0.00 0.08 0.00 95 1019.3
20260830081511 51 111 0.0 0.0 0.00 0.08 0.00 95 1019.3
20260830080007 51 111 0.0 3.0 0.00 0.08 0.00 95 1019.5
20260830074503 50 143 0.0 1.0 0.00 0.08 0.00 95 1019.3
20260830073003 50 158 0.0 1.0 0.00 0.08 0.00 93 1019.3
20260830071614 50 158 0.0 0.0 0.00 0.08 0.00 92 1019.2
20260830070058 50 158 0.0 0.0 0.00 0.08 0.00 91 1019.2
20260830064556 51 158 0.0 0.0 0.00 0.08 0.08 90 1019.3
20260830063056 52 158 0.0 3.0 0.00 0.08 0.08 92 1019.4
20260830061555 52 116 0.0 0.0 0.00 0.08 0.08 90 1019.4
20260830060055 52 157 0.0 0.0 0.00 0.08 0.08 89 1019.4
20260830054554 53 157 0.0 0.0 0.00 0.08 0.08 89 1019.5
20260830053058 53 157 0.0 0.0 0.00 0.08 0.08 88 1019.6
20260830051554 54 158 0.0 0.0 0.00 0.08 0.08 85 1019.6